TAM1424 SBFZ-SBSL

Flight info

Callsign TAM1424
Flight time 0h 59m
Altitude 36000
Route ISUPI UZ81 SLI
Aircraft A21N/M-SDE3FGHIRWY/LB1

Departure

Time 2026-04-21 01:25
Airport Pinto Martins International Airport (SBFZ)

Arrival

Time 2026-04-21 02:24
Airport Marechal Cunha Machado International Airport (SBSL)
Time Latitude Longitude Altitude Speed Heading
2026-04-21 01:11 -3.77789 -38.53999 90 ft 0 kts 204°
2026-04-21 01:16 -3.77777 -38.53994 90 ft 2 kts 202°
2026-04-21 01:17 -3.77762 -38.53988 90 ft 2 kts 212°
2026-04-21 01:17 -3.77752 -38.53977 90 ft 2 kts 248°
2026-04-21 01:17 -3.77750 -38.53962 90 ft 2 kts 277°
2026-04-21 01:17 -3.77751 -38.53955 90 ft 1 kts 292°
2026-04-21 01:18 -3.77753 -38.53951 90 ft 0 kts 288°
2026-04-21 01:20 -3.77752 -38.53954 90 ft 1 kts 288°
2026-04-21 01:20 -3.77745 -38.53978 90 ft 4 kts 284°
2026-04-21 01:20 -3.77734 -38.54022 90 ft 8 kts 284°
2026-04-21 01:21 -3.77715 -38.54089 90 ft 12 kts 287°
2026-04-21 01:21 -3.77687 -38.54182 90 ft 15 kts 286°
2026-04-21 01:21 -3.77635 -38.54265 88 ft 8 kts 305°
2026-04-21 01:21 -3.77614 -38.54314 89 ft 7 kts 287°
2026-04-21 01:22 -3.77590 -38.54352 90 ft 6 kts 321°
2026-04-21 01:22 -3.77559 -38.54367 89 ft 4 kts 343°
2026-04-21 01:22 -3.77514 -38.54380 89 ft 8 kts 334°
2026-04-21 01:22 -3.77474 -38.54433 88 ft 11 kts 284°
2026-04-21 01:23 -3.77414 -38.54498 82 ft 15 kts 359°
2026-04-21 01:23 -3.77355 -38.54488 87 ft 0 kts 26°
2026-04-21 01:23 -3.77354 -38.54488 87 ft 2 kts 26°
2026-04-21 01:23 -3.77316 -38.54446 87 ft 8 kts 86°
2026-04-21 01:24 -3.77322 -38.54411 87 ft 0 kts 104°
2026-04-21 01:24 -3.77363 -38.54254 87 ft 59 kts 105°
2026-04-21 01:24 -3.77528 -38.53630 87 ft 124 kts 105°
2026-04-21 01:24 -3.77798 -38.52610 87 ft 177 kts 105°
2026-04-21 01:25 -3.78140 -38.51325 314 ft 200 kts 105°
2026-04-21 01:25 -3.78534 -38.49962 931 ft 207 kts 105°
2026-04-21 01:25 -3.78916 -38.48644 1901 ft 194 kts 104°
2026-04-21 01:25 -3.79474 -38.47443 2432 ft 197 kts 130°
2026-04-21 01:26 -3.80701 -38.46733 2690 ft 218 kts 162°
2026-04-21 01:26 -3.82322 -38.46727 2905 ft 243 kts 186°
2026-04-21 01:26 -3.84027 -38.47042 3245 ft 258 kts 187°
2026-04-21 01:26 -3.85853 -38.47380 3669 ft 270 kts 190°
2026-04-21 01:27 -3.87576 -38.48223 4289 ft 281 kts 221°
2026-04-21 01:27 -3.88562 -38.49883 4988 ft 286 kts 255°
2026-04-21 01:27 -3.88505 -38.51872 5657 ft 290 kts 286°
2026-04-21 01:27 -3.87819 -38.53772 6306 ft 293 kts 288°
2026-04-21 01:28 -3.87171 -38.55713 6952 ft 295 kts 286°
2026-04-21 01:28 -3.86584 -38.57672 7619 ft 297 kts 285°
2026-04-21 01:28 -3.86021 -38.59681 8231 ft 300 kts 284°
2026-04-21 01:28 -3.85477 -38.61700 8868 ft 301 kts 284°
2026-04-21 01:29 -3.84946 -38.63715 9468 ft 303 kts 284°
2026-04-21 01:29 -3.84416 -38.65756 10051 ft 306 kts 284°
2026-04-21 01:29 -3.83877 -38.67842 10465 ft 315 kts 284°
2026-04-21 01:29 -3.83319 -38.70015 10703 ft 329 kts 284°
2026-04-21 01:30 -3.82737 -38.72281 11046 ft 339 kts 284°
2026-04-21 01:30 -3.82151 -38.74567 11536 ft 343 kts 284°
2026-04-21 01:30 -3.81561 -38.76867 12031 ft 346 kts 285°
2026-04-21 01:30 -3.80960 -38.79209 12558 ft 348 kts 285°
2026-04-21 01:31 -3.80355 -38.81565 13058 ft 350 kts 285°
2026-04-21 01:31 -3.79744 -38.83950 13506 ft 354 kts 285°
2026-04-21 01:31 -3.79132 -38.86333 13980 ft 356 kts 285°
2026-04-21 01:31 -3.78516 -38.88735 14443 ft 359 kts 285°
2026-04-21 01:32 -3.77893 -38.91160 14903 ft 360 kts 285°
2026-04-21 01:32 -3.77269 -38.93599 15337 ft 363 kts 285°
2026-04-21 01:32 -3.76639 -38.96059 15750 ft 365 kts 285°
2026-04-21 01:32 -3.76008 -38.98517 16185 ft 367 kts 285°
2026-04-21 01:33 -3.75368 -39.01018 16602 ft 369 kts 285°
2026-04-21 01:33 -3.74724 -39.03532 16990 ft 371 kts 285°
2026-04-21 01:33 -3.74081 -39.06043 17379 ft 373 kts 285°
2026-04-21 01:33 -3.73441 -39.08540 17747 ft 375 kts 285°
2026-04-21 01:34 -3.72783 -39.11105 18116 ft 377 kts 285°
2026-04-21 01:34 -3.72136 -39.13625 18466 ft 380 kts 285°
2026-04-21 01:34 -3.71475 -39.16201 18797 ft 383 kts 285°
2026-04-21 01:34 -3.70806 -39.18805 19116 ft 385 kts 285°
2026-04-21 01:35 -3.70144 -39.21382 19474 ft 387 kts 285°
2026-04-21 01:35 -3.69472 -39.24005 19799 ft 389 kts 285°
2026-04-21 01:35 -3.68798 -39.26631 20091 ft 392 kts 285°
2026-04-21 01:35 -3.68114 -39.29297 20400 ft 394 kts 285°
2026-04-21 01:36 -3.67434 -39.31945 20737 ft 395 kts 285°
2026-04-21 01:36 -3.66750 -39.34608 21029 ft 398 kts 285°
2026-04-21 01:36 -3.66063 -39.37285 21301 ft 400 kts 285°
2026-04-21 01:36 -3.65361 -39.40013 21596 ft 402 kts 285°
2026-04-21 01:37 -3.64665 -39.42725 21907 ft 403 kts 285°
2026-04-21 01:37 -3.63967 -39.45443 22188 ft 405 kts 285°
2026-04-21 01:37 -3.63261 -39.48188 22482 ft 407 kts 285°
2026-04-21 01:37 -3.62553 -39.50945 22756 ft 409 kts 285°
2026-04-21 01:38 -3.61847 -39.53692 22997 ft 412 kts 285°
2026-04-21 01:38 -3.61134 -39.56466 23285 ft 413 kts 285°
2026-04-21 01:38 -3.60411 -39.59276 23613 ft 414 kts 285°
2026-04-21 01:38 -3.59695 -39.62059 23937 ft 414 kts 285°
2026-04-21 01:39 -3.58978 -39.64854 24209 ft 416 kts 284°
2026-04-21 01:39 -3.58263 -39.67631 24482 ft 418 kts 285°
2026-04-21 01:39 -3.57534 -39.70470 24708 ft 420 kts 285°
2026-04-21 01:39 -3.56801 -39.73316 24989 ft 421 kts 285°
2026-04-21 01:40 -3.56069 -39.76160 25286 ft 422 kts 285°
2026-04-21 01:40 -3.55342 -39.78985 25532 ft 424 kts 285°
2026-04-21 01:40 -3.54598 -39.81876 25745 ft 426 kts 285°
2026-04-21 01:40 -3.53861 -39.84742 25996 ft 428 kts 285°
2026-04-21 01:41 -3.53119 -39.87629 26211 ft 430 kts 285°
2026-04-21 01:41 -3.52369 -39.90543 26448 ft 431 kts 284°
2026-04-21 01:41 -3.51623 -39.93440 26675 ft 433 kts 284°
2026-04-21 01:41 -3.50873 -39.96352 26910 ft 434 kts 284°
2026-04-21 01:42 -3.50114 -39.99302 27147 ft 435 kts 284°
2026-04-21 01:42 -3.49361 -40.02229 27376 ft 437 kts 284°
2026-04-21 01:42 -3.48598 -40.05188 27577 ft 439 kts 284°
2026-04-21 01:42 -3.47834 -40.08156 27807 ft 440 kts 284°
2026-04-21 01:43 -3.47074 -40.11110 28046 ft 441 kts 285°
2026-04-21 01:43 -3.46308 -40.14080 28255 ft 442 kts 285°
2026-04-21 01:43 -3.45534 -40.17079 28466 ft 444 kts 285°
2026-04-21 01:43 -3.44755 -40.20095 28710 ft 445 kts 284°
2026-04-21 01:44 -3.43981 -40.23099 28938 ft 446 kts 284°
2026-04-21 01:44 -3.43209 -40.26091 29182 ft 447 kts 285°
2026-04-21 01:44 -3.42432 -40.29107 29419 ft 448 kts 285°
2026-04-21 01:44 -3.41652 -40.32135 29603 ft 451 kts 285°
2026-04-21 01:45 -3.40870 -40.35168 29819 ft 452 kts 285°
2026-04-21 01:45 -3.40087 -40.38203 30034 ft 454 kts 285°
2026-04-21 01:45 -3.39302 -40.41247 30268 ft 455 kts 285°
2026-04-21 01:45 -3.38504 -40.44340 30497 ft 456 kts 285°
2026-04-21 01:46 -3.37709 -40.47425 30724 ft 457 kts 285°
2026-04-21 01:46 -3.36911 -40.50514 30943 ft 459 kts 285°
2026-04-21 01:46 -3.36177 -40.53620 31129 ft 461 kts 282°
2026-04-21 01:46 -3.35528 -40.56717 31345 ft 462 kts 282°
2026-04-21 01:47 -3.34877 -40.59895 31555 ft 463 kts 282°
2026-04-21 01:47 -3.34235 -40.63029 31766 ft 464 kts 282°
2026-04-21 01:47 -3.33585 -40.66201 32058 ft 463 kts 282°
2026-04-21 01:47 -3.32938 -40.69357 32349 ft 462 kts 282°
2026-04-21 01:48 -3.32290 -40.72512 32647 ft 461 kts 282°
2026-04-21 01:48 -3.31647 -40.75642 32952 ft 461 kts 282°
2026-04-21 01:48 -3.30996 -40.78799 33259 ft 460 kts 282°
2026-04-21 01:48 -3.30356 -40.81910 33568 ft 459 kts 282°
2026-04-21 01:49 -3.29711 -40.85045 33857 ft 459 kts 282°
2026-04-21 01:49 -3.29066 -40.88171 34170 ft 458 kts 282°
2026-04-21 01:49 -3.28429 -40.91251 34500 ft 456 kts 282°
2026-04-21 01:49 -3.27786 -40.94357 34813 ft 455 kts 282°
2026-04-21 01:50 -3.27142 -40.97463 35097 ft 454 kts 282°
2026-04-21 01:50 -3.26501 -41.00559 35367 ft 453 kts 282°
2026-04-21 01:50 -3.25868 -41.03617 35648 ft 452 kts 282°
2026-04-21 01:50 -3.25235 -41.06682 35852 ft 452 kts 282°
2026-04-21 01:51 -3.24591 -41.09794 35971 ft 454 kts 282°
2026-04-21 01:51 -3.23945 -41.12912 35975 ft 456 kts 282°
2026-04-21 01:51 -3.22656 -41.19141 35970 ft 464 kts 282°
2026-04-21 01:52 -3.20668 -41.28741 35962 ft 476 kts 282°
2026-04-21 01:53 -3.19317 -41.35263 35960 ft 481 kts 282°
2026-04-21 01:53 -3.17951 -41.41866 35963 ft 486 kts 282°
2026-04-21 01:54 -3.16578 -41.48490 35963 ft 489 kts 282°
2026-04-21 01:54 -3.15220 -41.55061 35958 ft 479 kts 282°
2026-04-21 01:55 -3.13571 -41.61502 35946 ft 477 kts 294°
2026-04-21 01:55 -3.11985 -41.64399 35949 ft 474 kts 306°
2026-04-21 01:55 -3.09835 -41.66915 35951 ft 472 kts 319°
2026-04-21 01:56 -3.04456 -41.70641 35948 ft 470 kts 330°
2026-04-21 01:56 -2.98913 -41.74134 35940 ft 471 kts 330°
2026-04-21 01:57 -2.93358 -41.77657 35940 ft 470 kts 328°
2026-04-21 01:57 -2.90783 -41.79713 35926 ft 474 kts 317°
2026-04-21 01:57 -2.88687 -41.82249 35937 ft 477 kts 304°
2026-04-21 01:58 -2.85937 -41.88307 35937 ft 480 kts 287°
2026-04-21 01:58 -2.84552 -41.94843 35940 ft 481 kts 280°
2026-04-21 01:59 -2.83438 -42.01439 35938 ft 481 kts 279°
2026-04-21 01:59 -2.82742 -42.08091 35940 ft 482 kts 271°
2026-04-21 02:00 -2.82706 -42.14816 35938 ft 482 kts 270°
2026-04-21 02:00 -2.82662 -42.21540 35757 ft 482 kts 270°
2026-04-21 02:00 -2.82621 -42.24890 35565 ft 482 kts 270°
2026-04-21 02:01 -2.82573 -42.28199 35396 ft 482 kts 270°
2026-04-21 02:01 -2.82520 -42.31582 35182 ft 479 kts 271°
2026-04-21 02:01 -2.82466 -42.34874 34418 ft 473 kts 271°
2026-04-21 02:01 -2.82412 -42.38146 32941 ft 478 kts 271°
2026-04-21 02:02 -2.82356 -42.41505 32263 ft 487 kts 271°
2026-04-21 02:02 -2.82298 -42.44899 31742 ft 491 kts 271°
2026-04-21 02:02 -2.82239 -42.48320 31232 ft 492 kts 271°
2026-04-21 02:02 -2.82179 -42.51755 30760 ft 492 kts 271°
2026-04-21 02:03 -2.82120 -42.55146 30321 ft 492 kts 271°
2026-04-21 02:03 -2.82061 -42.58541 29895 ft 491 kts 270°
2026-04-21 02:03 -2.82002 -42.61961 29483 ft 492 kts 270°
2026-04-21 02:03 -2.81943 -42.65382 29088 ft 491 kts 270°
2026-04-21 02:04 -2.81883 -42.68839 28703 ft 491 kts 270°
2026-04-21 02:04 -2.81823 -42.72269 28332 ft 491 kts 270°
2026-04-21 02:04 -2.81765 -42.75680 27977 ft 492 kts 270°
2026-04-21 02:04 -2.81707 -42.79103 27628 ft 489 kts 270°
2026-04-21 02:05 -2.81648 -42.82477 26914 ft 480 kts 270°
2026-04-21 02:05 -2.81590 -42.85803 26307 ft 483 kts 270°
2026-04-21 02:05 -2.81531 -42.89194 25740 ft 485 kts 270°
2026-04-21 02:05 -2.81473 -42.92526 25240 ft 490 kts 270°
2026-04-21 02:06 -2.81412 -42.95973 24709 ft 497 kts 270°
2026-04-21 02:06 -2.81352 -42.99435 24200 ft 498 kts 270°
2026-04-21 02:06 -2.81290 -43.02911 23734 ft 497 kts 270°
2026-04-21 02:06 -2.81230 -43.06289 23095 ft 482 kts 270°
2026-04-21 02:07 -2.81171 -43.09611 22705 ft 470 kts 270°
2026-04-21 02:07 -2.81114 -43.12855 22273 ft 465 kts 270°
2026-04-21 02:07 -2.81056 -43.16073 21770 ft 467 kts 270°
2026-04-21 02:07 -2.81001 -43.19292 21307 ft 467 kts 270°
2026-04-21 02:08 -2.80944 -43.22535 20874 ft 468 kts 270°
2026-04-21 02:08 -2.80887 -43.25810 20446 ft 467 kts 271°
2026-04-21 02:08 -2.80831 -43.29004 19766 ft 466 kts 271°
2026-04-21 02:08 -2.80774 -43.32254 19130 ft 470 kts 271°
2026-04-21 02:09 -2.80714 -43.35577 18522 ft 474 kts 271°
2026-04-21 02:09 -2.80659 -43.38657 17991 ft 474 kts 271°
2026-04-21 02:09 -2.80601 -43.41939 17404 ft 467 kts 272°
2026-04-21 02:09 -2.80544 -43.45114 16789 ft 445 kts 271°
2026-04-21 02:10 -2.80489 -43.48085 16352 ft 421 kts 271°
2026-04-21 02:10 -2.80437 -43.50930 15917 ft 399 kts 271°
2026-04-21 02:10 -2.80387 -43.53657 15469 ft 380 kts 271°
2026-04-21 02:10 -2.80339 -43.56261 15030 ft 370 kts 271°
2026-04-21 02:11 -2.80293 -43.58795 14595 ft 368 kts 271°
2026-04-21 02:11 -2.80246 -43.61340 14153 ft 365 kts 271°
2026-04-21 02:11 -2.80199 -43.63894 13728 ft 364 kts 271°
2026-04-21 02:11 -2.80152 -43.66406 13291 ft 362 kts 271°
2026-04-21 02:12 -2.80106 -43.68916 12857 ft 360 kts 271°
2026-04-21 02:12 -2.80061 -43.71407 12435 ft 357 kts 271°
2026-04-21 02:12 -2.80016 -43.73870 12018 ft 355 kts 271°
2026-04-21 02:12 -2.79971 -43.76318 11608 ft 353 kts 271°
2026-04-21 02:13 -2.79927 -43.78760 11198 ft 350 kts 271°
2026-04-21 02:13 -2.79882 -43.81158 10799 ft 337 kts 270°
2026-04-21 02:13 -2.79840 -43.83443 10412 ft 322 kts 270°
2026-04-21 02:13 -2.79800 -43.85650 10100 ft 312 kts 270°
2026-04-21 02:14 -2.79763 -43.87675 10005 ft 309 kts 270°
2026-04-21 02:14 -2.79724 -43.89801 9830 ft 299 kts 270°
2026-04-21 02:14 -2.79686 -43.91885 9562 ft 298 kts 270°
2026-04-21 02:14 -2.79651 -43.93834 9282 ft 296 kts 270°
2026-04-21 02:15 -2.79613 -43.95867 8976 ft 294 kts 270°
2026-04-21 02:15 -2.79578 -43.97805 8678 ft 292 kts 270°
2026-04-21 02:15 -2.79541 -43.99820 8371 ft 291 kts 270°
2026-04-21 02:15 -2.79503 -44.01852 8066 ft 289 kts 270°
2026-04-21 02:16 -2.79467 -44.03828 7692 ft 288 kts 270°
2026-04-21 02:16 -2.79429 -44.05867 7276 ft 292 kts 270°
2026-04-21 02:16 -2.79392 -44.07901 6905 ft 292 kts 270°
2026-04-21 02:16 -2.79355 -44.09912 6563 ft 290 kts 270°
2026-04-21 02:17 -2.79318 -44.11921 6223 ft 287 kts 270°
2026-04-21 02:17 -2.79281 -44.13909 5890 ft 286 kts 270°
2026-04-21 02:17 -2.79245 -44.15885 5621 ft 280 kts 270°
2026-04-21 02:17 -2.79210 -44.17808 5356 ft 277 kts 270°
2026-04-21 02:18 -2.79174 -44.19722 5075 ft 275 kts 270°
2026-04-21 02:18 -2.79139 -44.21616 4796 ft 271 kts 270°
2026-04-21 02:18 -2.79104 -44.23490 4521 ft 267 kts 270°
2026-04-21 02:18 -2.79068 -44.25342 4255 ft 263 kts 270°
2026-04-21 02:19 -2.78807 -44.27124 4009 ft 258 kts 291°
2026-04-21 02:19 -2.77883 -44.28657 3691 ft 257 kts 310°
2026-04-21 02:19 -2.76752 -44.30004 3487 ft 250 kts 311°
2026-04-21 02:19 -2.75640 -44.31302 3168 ft 239 kts 311°
2026-04-21 02:20 -2.74596 -44.32544 2864 ft 228 kts 311°
2026-04-21 02:20 -2.73515 -44.33655 2580 ft 216 kts 332°
2026-04-21 02:20 -2.72127 -44.33973 2378 ft 200 kts 11°
2026-04-21 02:20 -2.70912 -44.33491 2459 ft 175 kts 38°
2026-04-21 02:21 -2.70023 -44.32775 2442 ft 160 kts 42°
2026-04-21 02:21 -2.69178 -44.32050 2518 ft 160 kts 43°
2026-04-21 02:21 -2.68320 -44.31308 2346 ft 160 kts 42°
2026-04-21 02:21 -2.67516 -44.30638 2071 ft 157 kts 41°
2026-04-21 02:22 -2.66687 -44.29965 1866 ft 151 kts 41°
2026-04-21 02:22 -2.65913 -44.29343 1688 ft 150 kts 40°
2026-04-21 02:22 -2.65093 -44.28684 1499 ft 149 kts 40°
2026-04-21 02:22 -2.64308 -44.28052 1314 ft 149 kts 40°
2026-04-21 02:23 -2.63507 -44.27407 1125 ft 148 kts 40°
2026-04-21 02:23 -2.62740 -44.26789 943 ft 148 kts 40°
2026-04-21 02:23 -2.61944 -44.26147 752 ft 147 kts 40°
2026-04-21 02:23 -2.61132 -44.25493 559 ft 147 kts 39°
2026-04-21 02:24 -2.60334 -44.24849 368 ft 146 kts 39°
2026-04-21 02:24 -2.59571 -44.24234 198 ft 144 kts 39°
2026-04-21 02:24 -2.58887 -44.23682 182 ft 88 kts 39°
2026-04-21 02:24 -2.58581 -44.23435 182 ft 44 kts 39°
2026-04-21 02:25 -2.58499 -44.23395 182 ft 8 kts 336°
2026-04-21 02:25 -2.58452 -44.23431 182 ft 9 kts 310°
2026-04-21 02:25 -2.58442 -44.23457 182 ft 3 kts 272°
2026-04-21 02:25 -2.58450 -44.23489 182 ft 6 kts 247°
2026-04-21 02:26 -2.58470 -44.23536 182 ft 8 kts 248°
2026-04-21 02:26 -2.58485 -44.23573 182 ft 2 kts 255°
2026-04-21 02:26 -2.58470 -44.23593 182 ft 5 kts 344°
2026-04-21 02:26 -2.58433 -44.23605 182 ft 2 kts 339°
2026-04-21 02:27 -2.58432 -44.23606 182 ft 0 kts 339°